Location: Newark
(49.8969°N, 3.3422°E)
Time: 08:23:49
(UTC+00:00)

Envisat - Visible Passes

Search period start: 06 December 2019 00:00
Search period end: 16 December 2019 00:00
Orbit: 764 x 766 km, 98.1° (Epoch: 06 December)

Date Brightness Start Highest point End Pass type
(mag) Time Alt. Az. Time Alt. Az. Time Alt. Az.
06 Dec 5.8 05:29:59 10° NE 05:33:38 19° E 05:37:16 10° SE visible
06 Dec 3.4 16:48:34 10° SE 16:53:16 40° ENE 16:57:59 10° N visible
06 Dec 4.7 18:27:48 10° SSW 18:32:21 33° W 18:36:57 10° NNW visible
07 Dec 3.6 06:31:18 10° NNE 06:36:22 63° ESE 06:41:24 10° S visible
07 Dec 3.4 17:50:21 10° S 17:55:24 66° WSW 18:00:29 10° NNW visible
08 Dec 5.0 05:54:52 10° NNE 05:59:24 31° E 06:03:54 10° SSE visible
08 Dec 2.9 17:13:38 10° SSE 17:18:38 63° ENE 17:23:41 10° N visible
08 Dec 5.5 18:54:21 10° SW 18:58:06 21° W 19:01:53 10° NW visible
09 Dec 6.0 05:19:09 10° NE 05:22:13 16° E 05:25:16 10° SE visible
09 Dec 3.6 16:37:33 10° SE 16:42:03 33° ENE 16:46:34 10° N visible
09 Dec 4.3 18:16:14 10° SSW 18:21:00 40° W 18:25:49 10° NNW visible
10 Dec 4.0 06:20:05 10° NNE 06:25:03 51° E 06:29:59 10° S visible
10 Dec 3.1 17:39:01 10° SSE 17:44:06 81° WSW 17:49:13 10° NNW visible
10 Dec 6.1 19:21:52 10° WSW 19:23:57 12° W 19:26:04 10° WNW visible
11 Dec 5.3 05:43:47 10° NE 05:48:01 26° E 05:52:13 10° SSE visible
11 Dec 3.1 17:02:29 10° SE 17:07:23 52° ENE 17:12:19 10° N visible
11 Dec 5.2 18:42:33 10° SSW 18:46:42 25° W 18:50:53 10° NW visible
12 Dec 6.1 05:08:32 10° ENE 05:10:46 13° E 05:13:00 10° ESE visible
12 Dec 3.2 06:45:29 10° NNE 06:50:37 83° ESE 06:55:42 10° SSW visible
12 Dec 3.8 16:26:38 10° ESE 16:30:52 28° ENE 16:35:08 10° N visible
12 Dec 3.9 18:04:45 10° S 18:09:40 50° W 18:14:37 10° NNW visible
13 Dec 4.4 06:08:53 10° NNE 06:13:42 41° E 06:18:30 10° SSE visible
13 Dec 2.9 17:27:44 10° SSE 17:32:49 83° ENE 17:37:56 10° NNW visible
13 Dec 5.8 19:09:32 10° WSW 19:12:31 15° W 19:15:30 10° NW visible
14 Dec 5.7 05:32:47 10° NE 05:36:37 21° E 05:40:25 10° SE visible
14 Dec 3.3 16:51:24 10° SE 16:56:10 43° ENE 17:00:58 10° N visible
14 Dec 4.8 18:30:52 10° SSW 18:35:19 31° W 18:39:49 10° NNW visible
15 Dec 3.5 06:34:13 10° NNE 06:39:19 68° ESE 06:44:22 10° S visible
15 Dec 4.1 16:15:46 10° ESE 16:19:42 23° ENE 16:23:39 10° N visible
15 Dec 3.5 17:53:19 10° S 17:58:20 61° W 18:03:24 10° NNW visible
